Terminal Aerodrome Forecast
Issued by NWS

Home | Current Version | Previous Version | Text Only | Print | Product List | Glossary Off
Versions: 1 2 3 4 5 6 7 8 9 10 11 12 13 14 15 16 17 18 19 20 21 22 23

399
FTUS43 KMPX 061732
TAFAXN
TAF
KAXN 061732Z 0618/0718 20012KT P6SM SCT050 OVC090
     FM062200 23014KT P6SM VCSH OVC050 WS020/28040KT
     FM070600 27015G23KT 6SM BLSN BKN020 OVC040
     FM071500 27018G28KT 3SM -SN BLSN OVC025=

USA.gov is the U.S. government's official web portal to all federal, state and local government web resources and services.